Location: Newark
(40.2531°N, 0.7525°W)
Time: 10:29:27
(UTC+00:00)

Hubble Space Telescope - Pass Details

Date: 29 March 2019
Orbit: 536 x 540 km, 28.5° (Epoch: 16 October)

Event Time Altitude Azimuth Distance (km) Brightness Sun altitude
Rises 19:20:01 0° 241° (WSW) 2,673 5.1 -11.3°
Reaches altitude 10° 19:22:58 10° 219° (SW) 1,783 3.7 -11.9°
Maximum altitude 19:25:30 16° 181° (S) 1,448 2.8 -12.4°
Enters shadow 19:27:33 12° 148° (SSE) 1,674 2.9 -12.7°
